Houston Hull, TX

11:41 PM CST on November 18, 2019 (GMT -0600)
Sugar Land Municipal-Hull

Weather History for KSGR - September, 2019

Change the Weather History Date:

Saturday, September 21, 2019

  Actual Average Record
Temperature  
Mean Temperature 84 °F -  
Max Temperature 91 °F 87 °F 100 °F (1956)
Min Temperature 77 °F 69 °F 57 °F (1971)
Cooling Degree Days 18    
Growing Degree Days 34 (Base 50)    
Moisture  
Dew Point 75 °F    
Average Humidity 78    
Maximum Humidity 94    
Minimum Humidity 57    
Precipitation  
Precipitation 0.00 in - - ()
Sea Level Pressure  
Sea Level Pressure 30.04 in    
Wind  
Wind Speed 7 mph (ESE)    
Max Wind Speed 15 mph    
Max Gust Speed -    
Visibility 10 miles    
Events      
Averages and records for this station are not official NWS values.
T = Trace of Precipitation, MM = Missing Value Source: NWS Daily Summary

Daily Weather History Graph

Daily Weather History Graph

Search for Another Location

Airport or City:

Astronomy

Sep. 21, 2019 Rise Set
Actual Time 7:10 AM CDT 7:20 PM CDT
Civil Twilight 6:46 AM CDT 7:44 PM CDT
Nautical Twilight 6:18 AM CDT 8:12 PM CDT
Astronomical Twilight 5:50 AM CDT 8:40 PM CDT
Moon No Moon Rise 1:49 PM CDT (9/21)
Length of Visible Light 12h 57m
Length of Day
12h 10m
Waning Gibbous, 54% of the Moon is Illuminated
Sep 21
Waning Gibbous
Sep 21
Last Quarter
Sep 28
New
Oct 5
First Quarter
Oct 13
Full

Hourly Weather History & Observations

Time (CDT) Temp. Heat Index Dew Point Humidity Pressure Visibility Wind Dir Wind Speed Gust Speed Precip Events Conditions
12:53 AM 79.0 °F - 77.0 °F 94% 30.05 in 10.0 mi East 4.6 mph - N/A   Overcast
1:53 AM 79.0 °F - 75.9 °F 90% 30.04 in 10.0 mi ESE 5.8 mph - N/A   Clear
2:53 AM 78.1 °F - 75.9 °F 93% 30.03 in 10.0 mi ESE 5.8 mph - N/A   Clear
3:53 AM 77.0 °F - 75.0 °F 94% 30.02 in 10.0 mi East 4.6 mph - N/A   Clear
4:53 AM 77.0 °F - 75.0 °F 94% 30.02 in 10.0 mi ESE 5.8 mph - N/A   Clear
5:53 AM 77.0 °F - 75.0 °F 94% 30.02 in 10.0 mi ESE 5.8 mph - N/A   Clear
6:53 AM 78.1 °F - 75.0 °F 90% 30.04 in 10.0 mi ESE 3.5 mph - N/A   Clear
7:53 AM 79.0 °F - 75.9 °F 90% 30.06 in 10.0 mi East 4.6 mph - N/A   Clear
8:53 AM 82.0 °F 89.4 °F 75.9 °F 82% 30.07 in 10.0 mi SE 4.6 mph - N/A   Clear
9:53 AM 84.9 °F 94.1 °F 75.9 °F 74% 30.08 in 10.0 mi SE 12.7 mph - N/A   Clear
10:53 AM 86.0 °F 96.0 °F 75.9 °F 72% 30.09 in 10.0 mi SSE 10.4 mph - N/A   Scattered Clouds
11:53 AM 84.9 °F 91.4 °F 73.0 °F 67% 30.08 in 10.0 mi East 4.6 mph - N/A   Mostly Cloudy
12:53 PM 90.0 °F 100.2 °F 75.0 °F 61% 30.07 in 10.0 mi SE 13.8 mph - N/A   Scattered Clouds
1:53 PM 90.0 °F 99.0 °F 73.9 °F 59% 30.04 in 10.0 mi SSE 12.7 mph - N/A   Partly Cloudy
2:53 PM 90.0 °F 100.2 °F 75.0 °F 61% 30.03 in 10.0 mi SSE 10.4 mph - 0.00 in   Clear
3:53 PM 90.0 °F 99.0 °F 73.9 °F 59% 30.01 in 10.0 mi SE 15.0 mph - N/A   Partly Cloudy
4:53 PM 89.1 °F 96.0 °F 72.0 °F 57% 30.00 in 10.0 mi SE 13.8 mph - N/A   Clear
5:53 PM 86.0 °F 93.8 °F 73.9 °F 67% 30.00 in 10.0 mi SE 15.0 mph - N/A   Partly Cloudy
6:53 PM 84.9 °F 91.4 °F 73.0 °F 67% 30.00 in 10.0 mi SE 12.7 mph - N/A   Clear
7:53 PM 82.0 °F 87.4 °F 73.0 °F 74% 30.00 in 10.0 mi SE 8.1 mph - N/A   Clear
8:53 PM 81.0 °F 86.7 °F 75.0 °F 82% 30.02 in 10.0 mi SE 6.9 mph - N/A   Clear
9:53 PM 81.0 °F 87.3 °F 75.9 °F 85% 30.03 in 10.0 mi ESE 5.8 mph - N/A   Clear
10:53 PM 80.1 °F 85.4 °F 75.9 °F 87% 30.03 in 10.0 mi ESE 6.9 mph - N/A   Clear
11:53 PM 80.1 °F 85.4 °F 75.9 °F 87% 30.03 in 10.0 mi ESE 4.6 mph - N/A   Clear